{"data":{"norad_id":59268,"epoch":"2026-05-25T02:32:14.909568Z","epoch_age_seconds":56066,"freshness":"FRESH","line1":"1 59268U 24050Q   26145.10572812  .00015568  00000+0  53639-3 0  9998","line2":"2 59268  53.1592 186.3676 0001551  81.1686 278.9490 15.30214519122247","mean_motion":15.30214519,"eccentricity":0.0001551,"inclination_deg":53.1592,"raan_deg":186.3676,"arg_perigee_deg":81.1686,"mean_anomaly_deg":278.949,"bstar":0.00053639,"rev_number":12224,"period_min":94.104452814959,"perigee_km":474.1087704629,"apogee_km":476.23466682742,"semimajor_km":6853.3087186452,"source":"CELESTRAK","updated_at":"2026-05-25T13:38:18.876674Z"}}